EW6103 Weather Reports


time (UTC)temp
F
wind
direction
speed
knots
gust
knots
rain 1hr
in
rain 24hr
in
rain mn
in
humidity
%
barometer
mb
20260831031006 56 135 0.0 0.9 0.00 0.00 0.00 95 1013.9
20260831030013 56 135 0.0 0.9 0.00 0.00 0.00 95 1013.9
20260831025008 56 180 0.0 0.9 0.00 0.00 0.00 95 1014.0
20260831024006 56 90 0.0 0.0 0.00 0.00 0.00 95 1014.0
20260831023007 57 90 0.0 0.9 0.00 0.00 0.00 95 1014.0
20260831022009 57 90 0.0 1.7 0.00 0.00 0.00 95 1014.0
20260831021011 56 135 0.0 0.9 0.00 0.00 0.00 95 1014.1
20260831015006 57 45 0.0 0.0 0.00 0.00 0.00 94 1014.0
20260831014007 57 45 0.0 0.9 0.00 0.00 0.00 94 1014.0
20260831013011 58 45 0.0 0.9 0.00 0.00 0.00 94 1014.2
20260831011006 58 0 0.9 2.6 0.00 0.00 0.00 93 1014.2
20260831010013 58 0 0.0 0.9 0.00 0.00 0.00 94 1014.3
20260831005006 58 135 0.0 0.9 0.00 0.00 0.00 94 1014.3
20260831004008 58 135 0.0 1.7 0.00 0.00 0.00 94 1014.2
20260831003007 58 180 0.0 0.9 0.00 0.00 0.00 94 1014.3
20260831001006 58 180 0.0 0.9 0.00 0.00 0.00 93 1014.3
20260831000012 58 90 0.0 0.9 0.00 0.00 0.00 93 1014.4
20260830235005 58 0 0.0 0.0 0.00 0.00 0.00 93 1014.4
20260830233009 58 0 0.0 0.9 0.00 0.00 0.00 92 1014.5
20260830232009 59 0 0.0 1.7 0.00 0.00 0.00 91 1014.4
20260830231006 58 270 0.0 0.9 0.00 0.00 0.00 91 1014.5
20260830225008 59 135 0.0 0.9 0.00 0.00 0.00 90 1014.3
20260830224007 59 0 0.0 0.0 0.00 0.00 0.00 89 1014.4
20260830223008 60 0 0.0 0.0 0.00 0.00 0.00 89 1014.5
20260830222005 60 0 0.0 0.0 0.00 0.00 0.00 88 1014.5
20260830221011 61 0 0.0 0.9 0.00 0.00 0.00 86 1014.4
20260830220013 61 45 0.0 1.7 0.00 0.00 0.00 85 1014.4
20260830215006 62 225 0.0 1.7 0.00 0.00 0.00 85 1014.4
20260830214007 62 180 1.7 3.5 0.00 0.00 0.00 83 1014.2
20260830213007 62 135 0.0 1.7 0.00 0.00 0.00 86 1014.4
20260830212005 62 0 0.9 1.7 0.00 0.00 0.00 86 1014.2
20260830211008 61 45 0.0 1.7 0.00 0.00 0.00 86 1014.2
20260830210009 62 45 0.0 0.9 0.00 0.00 0.00 86 1014.1
20260830204006 62 45 0.0 0.9 0.00 0.00 0.00 85 1014.0
20260830203007 62 45 0.0 0.9 0.00 0.00 0.00 83 1013.9
20260830202006 63 45 0.0 0.9 0.00 0.00 0.00 83 1013.9
20260830201005 63 45 0.0 0.0 0.00 0.00 0.00 82 1013.9
20260830195006 63 45 0.0 0.0 0.00 0.00 0.00 81 1013.8
20260830194008 63 45 0.0 0.0 0.00 0.00 0.00 81 1013.8
20260830193008 64 45 0.0 0.0 0.00 0.00 0.00 83 1013.8
20260830192006 64 45 0.0 0.9 0.00 0.00 0.00 82 1013.6
20260830191006 65 45 0.0 0.0 0.00 0.00 0.00 80 1013.6
20260830185007 65 45 0.0 0.9 0.00 0.00 0.00 77 1013.6
20260830184006 66 45 0.0 1.7 0.00 0.00 0.00 76 1013.5
20260830183008 67 45 0.0 1.7 0.00 0.00 0.00 74 1013.4
20260830180017 69 180 0.0 1.7 0.00 0.00 0.00 70 1012.8
20260830175005 70 0 1.7 2.6 0.00 0.00 0.00 69 1012.8
20260830173007 72 180 0.9 1.7 0.00 0.00 0.00 65 1012.7
20260830171005 74 270 1.7 2.6 0.00 0.00 0.00 61 1012.5
20260830170011 75 270 3.5 4.3 0.00 0.00 0.00 58 1012.3
20260830164010 77 270 6.1 7.8 0.00 0.00 0.00 52 1012.3
20260830163011 78 270 5.2 9.6 0.00 0.00 0.00 48 1012.1
20260830161007 80 270 5.2 9.6 0.00 0.00 0.00 49 1011.9
20260830160014 81 270 3.5 6.1 0.00 0.00 0.00 49 1011.8
20260830155011 81 225 4.3 7.8 0.00 0.00 0.00 50 1011.9
20260830153010 80 225 3.5 6.1 0.00 0.00 0.00 51 1012.0
20260830152006 80 270 5.2 8.7 0.00 0.00 0.00 52 1012.1
20260830145006 84 270 5.2 8.7 0.00 0.00 0.00 48 1012.0
20260830144008 84 270 6.1 9.6 0.00 0.00 0.00 48 1012.0
20260830143008 83 225 4.3 9.6 0.00 0.00 0.00 46 1012.1
20260830142007 84 225 4.3 9.6 0.00 0.00 0.00 48 1012.0
20260830141009 84 270 4.3 9.6 0.00 0.00 0.00 48 1012.2
20260830140012 83 225 4.3 9.6 0.00 0.00 0.00 50 1012.1
20260830135006 82 270 6.1 9.6 0.00 0.00 0.00 49 1012.4
20260830134007 82 225 4.3 9.6 0.00 0.00 0.00 50 1012.4
20260830133009 84 270 4.3 7.0 0.00 0.00 0.00 53 1012.4
20260830132007 82 225 3.5 6.1 0.00 0.00 0.00 52 1012.5
20260830131018 81 270 3.5 6.1 0.00 0.00 0.00 53 1012.6
20260830130012 81 270 6.1 8.7 0.00 0.00 0.00 56 1012.8
20260830124006 81 225 3.5 6.1 0.00 0.00 0.00 57 1012.9
20260830123010 80 180 3.5 7.8 0.00 0.00 0.00 52 1012.9
20260830122008 83 270 3.5 7.8 0.00 0.00 0.00 51 1012.9
20260830121007 83 270 6.1 9.6 0.00 0.00 0.00 55 1012.7
20260830120011 82 270 7.8 13.0 0.00 0.00 0.00 54 1012.8
20260830115007 85 270 7.0 9.6 0.00 0.00 0.00 53 1012.6
20260830114007 83 270 4.3 8.7 0.00 0.00 0.00 51 1013.0
20260830113008 84 270 6.1 8.7 0.00 0.00 0.00 53 1013.0
20260830112006 82 270 6.1 9.6 0.00 0.00 0.00 54 1013.0
20260830111006 83 270 4.3 6.1 0.00 0.00 0.00 55 1012.9
20260830110012 82 270 4.3 8.7 0.00 0.00 0.00 57 1013.1
20260830105005 82 270 6.1 9.6 0.00 0.00 0.00 54 1013.2
20260830104005 82 270 4.3 7.0 0.00 0.00 0.00 52 1013.3
20260830103011 82 270 3.5 7.0 0.00 0.00 0.00 54 1013.3
20260830102006 81 180 3.5 4.3 0.00 0.00 0.00 51 1013.4
20260830101008 80 180 6.1 10.4 0.00 0.00 0.00 54 1013.6
20260830095009 80 270 5.2 9.6 0.00 0.00 0.00 54 1013.8
20260830094008 80 270 4.3 7.8 0.00 0.00 0.00 57 1013.7
20260830092006 79 270 6.1 9.6 0.00 0.00 0.00 58 1014.1
20260830091009 78 270 6.1 9.6 0.00 0.00 0.00 57 1014.1
20260830090011 79 270 5.2 7.8 0.00 0.00 0.00 61 1014.1
20260830085006 77 225 2.6 4.3 0.00 0.00 0.00 55 1014.2
20260830083008 76 270 2.6 4.3 0.00 0.00 0.00 63 1014.2
20260830082007 75 270 3.5 6.1 0.00 0.00 0.00 62 1014.4
20260830081009 74 270 2.6 4.3 0.00 0.00 0.00 62 1014.5
20260830080013 73 135 1.7 5.2 0.00 0.00 0.00 66 1014.5
20260830074008 72 180 1.7 3.5 0.00 0.00 0.00 64 1014.4
20260830073008 71 90 1.7 3.5 0.00 0.00 0.00 64 1014.4
20260830072008 70 135 1.7 3.5 0.00 0.00 0.00 64 1014.4
20260830071007 69 135 0.9 2.6 0.00 0.00 0.00 69 1014.5
20260830070012 68 180 1.7 3.5 0.00 0.00 0.00 67 1014.5
20260830065006 69 135 1.7 3.5 0.00 0.00 0.00 67 1014.5
20260830064006 67 180 1.7 4.3 0.00 0.00 0.00 70 1014.5
20260830063011 66 45 1.7 2.6 0.00 0.00 0.00 76 1014.6
20260830062009 64 90 0.9 2.6 0.00 0.00 0.00 77 1014.7
20260830061009 63 180 0.9 2.6 0.00 0.00 0.00 81 1014.7
20260830060011 62 90 0.9 2.6 0.00 0.00 0.00 86 1014.8
20260830055007 60 135 0.0 1.7 0.00 0.00 0.00 88 1014.7
20260830054008 58 180 0.0 0.0 0.00 0.00 0.00 94 1015.0
20260830052006 55 0 0.0 0.0 0.00 0.00 0.00 95 1015.1
20260830050011 55 0 0.0 0.0 0.00 0.00 0.00 95 1015.1
20260830044012 55 0 0.0 0.0 0.00 0.00 0.00 95 1015.1
20260830043007 55 0 0.0 0.0 0.00 0.00 0.00 95 1015.1
20260830042008 55 0 0.0 0.0 0.00 0.00 0.00 95 1015.1
20260830041006 55 0 0.0 0.0 0.00 0.00 0.00 95 1015.1
20260830035006 55 0 0.0 0.0 0.00 0.00 0.00 95 1015.1
20260830034006 55 0 0.0 0.0 0.00 0.00 0.00 95 1015.1
20260830032007 55 0 0.0 0.0 0.00 0.00 0.00 95 1015.1